SCP
0 0 0 0 0 0 0 0 0 0 0 0 0 0 -0 -0 -0 0 0 0 0 0 0 0 0 0 0 -0 0 0 -0 0 0 0 -0 -0 -0 -0 0 0 0 -0 0 -0 -0 -0 -0
0 0 0 0 0 0 0 0 0 0 0 0 0 0 0 -0 -0 -0 0 0 0 0 0 0 0 0 0 0 0 -0 -0 0 -0 -0 -0 -0 -0 -0 0 0 -0 0 -0 -0 -0 -0 -0
0 0 0 0 0 0 0 0 0 0 0 0 0 0 0 0 0 -0 0 0 0 0 0 0 0 0 0 0 0 -0 -0 -0 -0 -0 -0 -0 -0 -0 0 0 -0 -0 0 0 -0 0 -0
0 0 0 0 0 0 0 0 0 0 0 0 0 0 0 0 0 0 0 0 0 -0 0 0 0 0 0 0 0 0 -0 -0 -0 -0 -0 -0 -0 -0 -0 -0 -0 0 -0 0 0 0 0
0 0 0 0 0 0 0 0 0 0 0 0 0 0 0 0 0 0 0 0 -0 -0 -0 -0 0 0 0 0 0 0 -0 -0 0 -0 -0 -0 -0 -0 -0 0 0 0 0 0 0 -0 -0
0 0 0 0 0 0 0 0 0 0 0 0 0 0 0 0 0 0 0 -0 -0 -0 -0 0 0 -0 0 0 0 -0 -0 -0 -0 -0 -0 -0 0 0 0 0 0 0 0 0 0 0 0
0 0 0 0 0 0 0 0 0 0 0 0 0 0 0 0 0 0 -0 -0 0 0 -0 0 0 0 0 0 -0 -0 -0 -0 -0 -0 0 0 -0 -0 0 0 0 0 0 0 0 0 0
0 0 0 0 0 0 0 0 0 0 0 0 0 0 0 0 0 0 -0 0 0 0 0 0 0 0 -0 -0 0 0 -0 -0 -0 0 0 0 0 -0 -0 -0 0 0 0 0 0 0 0
0 0 0 0 0 0 0 0 0 0 0 0 0 0 0 0 0 0 0 0 0 0 0 0 0 0 -0 -0 0 -0 0 -0 -0 0 -0 -0 -0 -0 -0 0 0 0 0 0 0 0 0
0 0 0 0 0 0 0 0 0 0 0 0 0 0 0 -0 0 0 0 0 0 0 0 0 0 0 -0 -0 0 -0 -0 0 -0 -0 0 -0 -0 -0 0 0 0 -0 0 0 0 -0 0
0 0 0 0 0 0 0 0 0 0 0 0 0 0 0 0 0 0 0 0 0 0 0 0 0 0 -0 -0 -0 0 0 0 -0 0 0 -0 0 -0 -0 0 -0 -0 -0 -0 0 -0 -0
0 0 0 0 0 0 0 0 0 0 0 0 0 0 0 0 0 0 0 0 0 0 0 0 0 0 0 -0 0 0 0 0 0 0 -0 -0 0 0 0 0 -0 0 -0 -0 -0 -0 -0
0 0 0 0 0 0 0 0 0 0 0 0 0 0 0 0 0 0 0 0 0 0 0 0 0 0 0 0 0 0 0 -0 -0 -0 -0 0 0 0 0 0 -0 -0 -0 -0 -0 -0 0
0 0 0 0 0 0 0 0 0 0 0 0 0 0 0 0 0 0 0 0 0 0 0 0 0 0 0 0 0 0 -0 0 -0 -0 -0 0 0 0 0 0 -0 0 -0 0 0 0 0
0 0 0 0 0 0 0 0 0 0 0 0 0 0 0 0 0 0 0 0 0 0 0 0 0 -0 0 0 0 0 -0 0 0 -0 -0 0 0 0 0 0 -0 0 0 -0 0 0 -0
0 0 0 0 0 0 0 0 0 0 0 0 0 0 0 0 0 0 0 0 0 0 0 0 0 0 0 0 0 0 0 0 0 0 0 0 0 0 0 0 0 0 0 0 0 0 0
0 0 0 0 0 0 0 0 0 0 0 0 0 0 0 0 0 0 0 0 0 0 0 0 0 0 0 0 0 0 0 0 0 0 0 0 0 0 0 0 0 0 0 0 0 0 0
0 0 0 0 0 0 0 0 0 0 0 0 0 0 0 0 0 0 0 0 0 0 0 0 0 0 0 0 0 0 0 0 0 0 0 0 0 0 0 0 0 0 0 0 0 0 0
0 0 0 0 0 0 0 0 0 0 0 0 0 0 0 0 0 0 0 0 0 0 0 0 0 0 0 0 0 0 0 0 0 0 0 0 0 0 0 0 0 0 0 0 0 0 0
0 0 0 0 0 0 0 0 0 0 0 0 0 0 0 0 0 0 0 0 0 0 0 0 0 0 0 0 0 0 0 0 0 0 0 0 0 0 0 0 0 0 0 0 0 0 0
0 0 0 0 0 0 0 0 0 0 0 0 0 0 0 0 0 0 0 0 0 0 0 0 0 0 0 0 0 0 0 0 0 0 0 0 0 0 0 0 0 0 0 0 0 0 0
0 0 0 0 0 0 0 0 0 0 0 0 0 0 0 0 0 0 0 0 0 0 0 0 0 0 0 0 0 0 0 0 0 0 0 0 0 0 0 0 0 0 0 0 0 0 0
0 0 0 0 0 0 0 0 0 0 0 0 0 0 0 0 0 0 0 0 0 0 0 0 0 0 0 0 0 0 0 0 0 0 0 0 0 0 0 0 0 0 0 0 0 0 0
0 0 0 0 0 0 0 0 0 0 0 0 0 0 0 0 0 0 0 0 0 0 0 0 0 0 0 0 0 0 0 0 0 0 0 0 0 0 0 0 0 0 0 0 0 0 0
0 0 0 0 0 0 0 0 0 0 0 0 0 0 0 0 0 0 0 0 0 0 0 0 0 0 0 0 0 0 0 0 0 0 0 0 0 0 0 0 0 0 0 0 0 0 0
0 0 0 0 0 0 0 0 0 0 0 0 0 0 0 0 0 0 0 0 0 0 0 0 0 0 0 0 0 0 0 0 0 0 0 0 0 0 0 0 0 0 0 0 0 0 0
0 0 0 0 0 0 0 0 0 0 0 0 0 0 0 0 0 0 0 0 0 0 0 0 0 0 0 0 0 0 0 0 0 0 0 0 0 0 0 0 0 0 0 0 0 0 0
0 0 0 0 0 0 0 0 0 0 0 0 0 0 0 0 0 0 0 0 0 0 0 0 0 0 0 0 0 0 0 0 0 0 0 0 0 0 0 0 0 0 0 0 0 0 0
0 0 0 0 0 0 0 0 0 0 0 0 0 0 0 0 0 0 0 0 0 0 0 0 0 0 0 0 0 0 0 0 0 0 0 0 0 0 0 0 0 0 0 0 0 0 0
Wind_Speed_500mb
6 6 6 8 10 12 15 17 18 21 23 24 27 27 28 30 28 25 21 16 17 15 10 5 2 6 14 6 13 12 14 16 23 26 21 16 16 13 10 7 14 18 7 11 17 17 19
5 6 9 9 11 13 13 16 19 21 23 26 28 28 27 28 27 24 16 14 17 12 2 1 4 11 12 12 14 17 17 19 20 19 15 10 6 5 8 5 14 4 10 14 14 18 18
5 5 6 8 10 12 14 17 17 21 24 24 28 28 29 29 26 22 13 11 13 10 5 3 6 10 6 12 17 21 22 13 22 15 9 4 4 8 5 10 6 12 19 16 16 7 10
5 5 6 8 9 11 14 15 18 21 23 24 27 29 29 29 25 19 13 15 10 3 6 4 6 13 8 21 19 20 22 19 18 13 7 6 3 5 8 4 13 17 12 20 12 6 5
4 5 7 9 11 11 13 16 19 21 23 26 27 28 30 29 24 15 16 12 3 3 3 3 10 9 16 12 9 19 19 12 12 10 10 9 5 7 11 20 15 14 14 16 17 11 4
7 5 8 9 11 12 14 15 18 20 23 26 27 28 30 27 21 11 16 8 5 2 1 7 6 8 12 12 16 23 21 15 10 13 9 10 12 13 12 19 6 14 15 15 7 9 7
8 8 9 11 12 14 14 16 19 20 23 26 27 28 29 24 16 7 15 5 5 0 6 7 3 4 18 14 23 21 19 14 13 13 8 11 19 6 12 8 8 4 2 5 10 7 5
10 10 10 12 13 15 16 18 19 22 24 27 28 28 27 23 9 3 8 5 7 6 6 9 11 6 13 14 22 26 18 18 14 12 9 14 12 9 1 6 4 5 6 15 20 12 1
12 13 13 13 15 16 18 19 21 22 25 26 28 27 24 22 4 2 4 3 10 12 9 6 9 11 14 17 16 28 22 12 11 11 4 13 15 3 11 13 13 5 5 9 6 10 5
14 15 16 16 17 18 20 22 24 25 26 26 28 27 23 17 3 4 4 9 14 12 10 14 18 13 14 13 13 14 20 8 9 7 6 9 6 10 14 11 15 13 3 4 6 17 4
17 18 18 17 19 20 22 24 26 27 28 27 28 27 20 14 10 5 9 11 13 7 9 20 16 13 16 12 34 16 17 8 8 9 13 15 6 9 7 12 5 16 3 8 8 9 14
21 20 21 20 20 21 22 24 27 28 29 28 26 28 18 14 10 15 11 11 4 11 7 16 17 21 23 18 12 19 16 7 1 6 2 11 4 8 10 9 5 1 11 13 15 9 16
24 23 23 23 23 22 24 25 27 29 32 29 26 26 18 13 6 14 10 5 9 10 8 17 21 22 27 23 20 24 21 21 13 18 20 10 8 8 6 13 11 12 15 12 7 6 10
28 26 25 25 24 23 24 26 27 29 34 31 28 22 15 14 14 16 8 11 13 4 12 6 10 21 24 24 17 18 20 17 11 13 14 15 16 3 8 12 16 4 10 14 6 3 7
30 30 28 28 27 26 26 25 28 29 34 33 28 16 9 14 16 19 17 14 4 7 5 10 16 27 18 18 8 17 20 11 10 15 8 11 9 11 10 9 11 10 10 14 14 9 14
31 32 32 29 29 27 27 27 28 29 31 34 28 8 7 10 20 21 14 10 5 2 3 8 22 15 28 26 21 16 21 5 12 10 8 4 6 9 10 6 5 10 7 11 11 8 8
35 33 34 32 30 29 26 27 27 27 28 29 19 7 7 19 23 18 15 8 5 5 5 6 8 12 16 17 23 19 16 10 5 7 15 8 11 15 9 7 10 7 15 5 8 11 18
38 35 36 35 32 30 27 25 25 27 26 22 7 9 6 25 17 8 16 7 1 7 7 8 6 2 15 13 17 17 17 3 1 8 11 7 9 15 3 6 6 11 8 7 11 7 8
39 38 37 38 34 31 27 24 22 22 25 25 13 6 3 27 12 14 8 9 5 8 6 6 10 4 4 11 9 10 11 7 4 7 8 11 10 15 12 12 13 13 10 8 7 10 22
45 40 38 38 37 32 29 23 21 16 18 19 9 8 9 17 6 12 14 12 13 4 5 4 3 6 12 12 3 13 13 5 4 6 6 3 6 20 22 19 9 11 17 18 19 16 24
49 44 39 38 38 36 32 25 21 15 13 12 7 2 4 11 18 11 9 3 14 11 4 5 8 13 17 12 13 12 10 14 11 10 6 5 16 14 20 16 16 24 29 29 30 33 31
47 50 42 39 39 38 34 28 22 17 11 7 9 6 4 3 4 16 10 14 9 9 4 11 10 8 9 12 11 13 13 10 11 11 8 4 14 16 27 24 24 31 35 33 36 36 37
50 51 51 42 40 40 37 31 26 19 12 7 9 6 5 7 10 14 16 14 12 7 5 3 0 8 12 10 9 11 9 9 5 5 10 8 11 14 27 15 18 25 39 40 38 37 30
60 51 52 48 41 41 40 35 29 24 20 15 11 7 10 9 13 13 11 12 13 5 4 5 2 6 5 8 9 7 6 4 5 7 0 9 15 14 19 15 28 12 4 13 23 27 25
66 57 51 51 44 42 43 39 33 28 24 21 19 10 8 8 12 13 17 14 11 6 8 4 6 4 9 7 8 8 10 9 17 6 11 10 15 16 16 24 31 37 29 16 16 24 25
75 67 55 57 52 44 45 42 37 32 28 24 23 20 6 9 16 4 19 14 13 15 11 7 6 11 5 9 9 17 19 12 9 11 3 14 17 18 18 23 22 10 9 8 6 25 14
68 68 59 61 53 46 46 44 40 36 31 28 23 21 10 14 6 11 11 12 9 8 8 9 10 9 6 12 16 18 21 11 21 22 13 13 13 26 25 25 19 10 7 4 21 5 11
66 72 61 56 56 46 47 45 42 39 35 31 24 25 16 11 6 11 6 7 7 11 12 11 10 9 10 16 14 15 14 16 21 26 20 22 17 19 21 31 41 10 6 17 10 6 7
60 67 63 56 63 45 46 46 43 40 37 33 17 26 22 7 3 18 16 15 7 4 5 9 5 3 3 10 7 8 9 8 19 22 19 21 24 18 11 9 7 3 5 7 7 11 7
Wind_Direction_500mb
15 17 359 1 341 7 355 350 355 349 342 347 345 343 342 340 328 332 337 341 342 327 309 266 200 151 140 163 99 135 125 130 140 152 148 153 172 175 179 157 184 234 197 227 240 256 262
42 2 359 10 2 4 350 349 356 347 344 350 343 342 344 333 333 333 338 351 0 2 359 196 136 148 148 155 141 137 126 137 163 158 160 159 150 188 126 167 244 166 277 257 248 252 246
21 15 359 345 351 350 355 353 351 350 347 348 341 341 342 333 335 332 334 340 351 21 35 98 121 144 144 109 140 139 128 151 168 170 166 185 147 244 173 169 236 263 268 204 213 246 249
356 354 344 341 352 352 348 350 350 353 346 344 342 340 338 336 335 331 336 322 311 310 40 60 117 135 99 147 132 142 132 135 149 159 161 185 237 244 246 219 231 250 240 177 109 338 117
346 342 341 336 346 344 344 350 349 347 345 342 340 342 337 337 334 334 337 331 318 297 309 70 115 128 125 169 161 168 158 150 158 178 198 207 225 246 205 229 195 204 136 113 132 27 179
320 334 327 336 338 338 343 346 341 341 343 336 337 341 337 337 337 339 342 327 338 314 135 91 128 170 157 150 157 162 156 154 162 159 162 209 211 209 191 218 127 125 152 148 68 68 80
306 313 322 323 330 329 335 338 334 335 337 330 334 342 337 339 336 341 354 19 346 125 296 264 125 315 132 138 152 165 163 165 178 206 190 200 234 97 69 27 52 79 138 113 94 131 26
293 298 306 311 318 325 330 328 326 329 329 330 331 337 337 337 329 30 24 36 30 325 268 248 233 210 168 165 150 169 169 194 197 163 189 212 96 80 66 183 184 198 188 111 95 99 274
282 289 295 303 311 317 318 319 320 324 325 326 325 331 336 333 306 206 59 12 348 335 250 161 189 180 172 174 153 173 187 177 200 183 196 39 67 95 187 158 192 164 359 128 24 166 174
275 281 288 297 303 310 316 318 322 323 323 324 321 323 331 340 341 230 227 329 338 328 232 137 182 166 169 178 150 161 183 199 189 145 182 64 92 166 178 126 296 145 82 281 231 241 178
274 277 283 291 299 307 314 318 319 321 320 318 316 315 324 321 273 231 232 320 326 299 188 150 145 158 175 211 136 174 187 195 182 141 252 91 104 167 185 48 296 53 306 296 279 271 280
274 275 279 285 293 302 309 315 317 319 318 315 318 311 309 300 280 229 239 316 305 229 150 156 151 177 174 171 159 145 176 205 209 220 283 99 90 20 41 99 9 117 227 227 243 252 214
270 272 276 281 289 300 307 312 318 321 319 317 318 306 292 277 238 222 230 277 228 259 147 159 174 184 180 163 145 170 177 193 205 182 189 177 135 101 359 217 175 220 246 251 230 202 60
269 269 272 277 284 292 301 310 318 322 321 321 323 304 275 249 240 205 201 228 238 111 178 135 190 182 185 162 159 171 183 170 210 256 161 210 164 209 10 4 334 315 318 314 274 250 73
266 269 270 276 282 290 299 310 317 323 324 324 330 316 262 240 216 192 218 222 238 178 100 187 174 183 173 178 204 192 209 202 154 209 259 193 121 122 76 43 317 125 251 28 285 198 259
264 265 268 269 276 284 295 304 313 322 327 330 335 318 230 224 185 177 223 260 222 142 320 214 209 226 187 183 197 212 185 164 176 219 262 161 209 200 131 227 113 331 37 233 200 281 274
263 262 262 266 270 278 286 299 311 322 329 330 333 257 238 156 156 193 224 213 218 210 262 244 206 186 212 180 214 202 185 129 209 170 213 205 256 149 193 218 355 198 210 240 309 300 298
260 261 261 260 263 270 280 291 308 322 331 332 332 230 210 166 201 208 224 197 151 209 212 234 259 205 189 182 187 202 184 37 143 193 206 161 243 246 327 1 277 279 301 271 298 277 243
257 260 259 258 258 262 270 282 297 318 334 345 309 265 274 182 220 205 166 195 209 213 213 223 206 269 204 158 158 165 146 105 95 196 194 177 210 218 203 183 186 223 194 261 270 277 268
252 256 257 255 254 254 259 267 280 299 321 335 292 214 170 200 257 289 197 196 185 156 234 266 234 198 176 169 151 167 147 111 100 119 112 215 246 259 280 354 345 200 222 231 242 269 281
249 248 252 253 249 249 252 252 264 278 304 326 260 137 305 189 197 216 225 199 199 176 218 228 195 231 204 197 190 181 153 149 150 141 148 248 250 245 265 282 268 271 270 262 235 257 260
248 242 246 250 248 245 245 246 247 257 268 282 277 260 214 150 196 207 178 208 218 158 278 177 246 170 199 222 236 212 193 200 200 165 195 190 262 264 269 261 265 266 261 259 256 254 259
238 242 241 246 245 241 239 239 237 240 238 244 263 258 266 148 185 209 207 195 187 194 114 53 14 197 180 82 68 67 68 77 66 248 200 230 260 252 269 286 284 267 253 251 257 256 250
232 240 237 238 241 237 235 233 230 228 227 228 241 225 243 189 227 205 176 193 178 163 216 124 72 223 104 128 110 115 112 125 176 133 144 216 230 261 267 267 258 268 342 284 272 273 272
229 230 234 235 238 232 230 227 224 222 219 220 224 206 239 230 220 182 190 180 173 147 169 166 63 115 144 168 205 203 193 223 216 198 220 234 239 259 252 255 273 274 261 226 255 268 288
226 223 229 233 230 229 224 221 217 215 211 211 217 211 225 265 207 189 189 201 212 206 170 145 100 149 168 233 220 237 242 243 205 178 210 215 242 246 243 256 271 44 76 33 286 267 13
219 221 225 225 221 222 220 216 211 208 205 203 210 204 200 241 184 172 202 203 193 211 243 152 168 172 197 217 235 243 247 226 245 235 191 194 216 229 238 251 264 295 108 297 251 0 14
215 220 216 223 211 215 213 211 207 203 200 199 213 202 189 231 187 193 185 178 172 215 225 132 180 196 204 229 242 230 248 223 247 249 253 233 236 233 245 265 267 81 177 245 6 9 348
210 216 214 220 206 209 209 206 202 200 199 197 204 201 197 205 174 216 213 208 183 181 227 191 9 58 268 234 212 263 222 242 243 249 198 249 247 280 244 288 36 25 287 292 296 299 314
Wind_Speed_850mb
6 6 6 8 10 12 15 17 18 21 23 24 27 27 28 30 28 25 21 16 17 15 10 5 2 6 14 6 13 12 14 16 23 26 21 16 16 13 10 7 14 18 7 11 17 17 19
5 6 9 9 11 13 13 16 19 21 23 26 28 28 27 28 27 24 16 14 17 12 2 1 4 11 12 12 14 17 17 19 20 19 15 10 6 5 8 5 14 4 10 14 14 18 18
5 5 6 8 10 12 14 17 17 21 24 24 28 28 29 29 26 22 13 11 13 10 5 3 6 10 6 12 17 21 22 13 22 15 9 4 4 8 5 10 6 12 19 16 16 7 10
5 5 6 8 9 11 14 15 18 21 23 24 27 29 29 29 25 19 13 15 10 3 6 4 6 13 8 21 19 20 22 19 18 13 7 6 3 5 8 4 13 17 12 20 12 6 5
4 5 7 9 11 11 13 16 19 21 23 26 27 28 30 29 24 15 16 12 3 3 3 3 10 9 16 12 9 19 19 12 12 10 10 9 5 7 11 20 15 14 14 16 17 11 4
7 5 8 9 11 12 14 15 18 20 23 26 27 28 30 27 21 11 16 8 5 2 1 7 6 8 12 12 16 23 21 15 10 13 9 10 12 13 12 19 6 14 15 15 7 9 7
8 8 9 11 12 14 14 16 19 20 23 26 27 28 29 24 16 7 15 5 5 0 6 7 3 4 18 14 23 21 19 14 13 13 8 11 19 6 12 8 8 4 2 5 10 7 5
10 10 10 12 13 15 16 18 19 22 24 27 28 28 27 23 9 3 8 5 7 6 6 9 11 6 13 14 22 26 18 18 14 12 9 14 12 9 1 6 4 5 6 15 20 12 1
12 13 13 13 15 16 18 19 21 22 25 26 28 27 24 22 4 2 4 3 10 12 9 6 9 11 14 17 16 28 22 12 11 11 4 13 15 3 11 13 13 5 5 9 6 10 5
14 15 16 16 17 18 20 22 24 25 26 26 28 27 23 17 3 4 4 9 14 12 10 14 18 13 14 13 13 14 20 8 9 7 6 9 6 10 14 11 15 13 3 4 6 17 4
17 18 18 17 19 20 22 24 26 27 28 27 28 27 20 14 10 5 9 11 13 7 9 20 16 13 16 12 34 16 17 8 8 9 13 15 6 9 7 12 5 16 3 8 8 9 14
21 20 21 20 20 21 22 24 27 28 29 28 26 28 18 14 10 15 11 11 4 11 7 16 17 21 23 18 12 19 16 7 1 6 2 11 4 8 10 9 5 1 11 13 15 9 16
24 23 23 23 23 22 24 25 27 29 32 29 26 26 18 13 6 14 10 5 9 10 8 17 21 22 27 23 20 24 21 21 13 18 20 10 8 8 6 13 11 12 15 12 7 6 10
28 26 25 25 24 23 24 26 27 29 34 31 28 22 15 14 14 16 8 11 13 4 12 6 10 21 24 24 17 18 20 17 11 13 14 15 16 3 8 12 16 4 10 14 6 3 7
30 30 28 28 27 26 26 25 28 29 34 33 28 16 9 14 16 19 17 14 4 7 5 10 16 27 18 18 8 17 20 11 10 15 8 11 9 11 10 9 11 10 10 14 14 9 14
31 32 32 29 29 27 27 27 28 29 31 34 28 8 7 10 20 21 14 10 5 2 3 8 22 15 28 26 21 16 21 5 12 10 8 4 6 9 10 6 5 10 7 11 11 8 8
35 33 34 32 30 29 26 27 27 27 28 29 19 7 7 19 23 18 15 8 5 5 5 6 8 12 16 17 23 19 16 10 5 7 15 8 11 15 9 7 10 7 15 5 8 11 18
38 35 36 35 32 30 27 25 25 27 26 22 7 9 6 25 17 8 16 7 1 7 7 8 6 2 15 13 17 17 17 3 1 8 11 7 9 15 3 6 6 11 8 7 11 7 8
39 38 37 38 34 31 27 24 22 22 25 25 13 6 3 27 12 14 8 9 5 8 6 6 10 4 4 11 9 10 11 7 4 7 8 11 10 15 12 12 13 13 10 8 7 10 22
45 40 38 38 37 32 29 23 21 16 18 19 9 8 9 17 6 12 14 12 13 4 5 4 3 6 12 12 3 13 13 5 4 6 6 3 6 20 22 19 9 11 17 18 19 16 24
49 44 39 38 38 36 32 25 21 15 13 12 7 2 4 11 18 11 9 3 14 11 4 5 8 13 17 12 13 12 10 14 11 10 6 5 16 14 20 16 16 24 29 29 30 33 31
47 50 42 39 39 38 34 28 22 17 11 7 9 6 4 3 4 16 10 14 9 9 4 11 10 8 9 12 11 13 13 10 11 11 8 4 14 16 27 24 24 31 35 33 36 36 37
50 51 51 42 40 40 37 31 26 19 12 7 9 6 5 7 10 14 16 14 12 7 5 3 0 8 12 10 9 11 9 9 5 5 10 8 11 14 27 15 18 25 39 40 38 37 30
60 51 52 48 41 41 40 35 29 24 20 15 11 7 10 9 13 13 11 12 13 5 4 5 2 6 5 8 9 7 6 4 5 7 0 9 15 14 19 15 28 12 4 13 23 27 25
66 57 51 51 44 42 43 39 33 28 24 21 19 10 8 8 12 13 17 14 11 6 8 4 6 4 9 7 8 8 10 9 17 6 11 10 15 16 16 24 31 37 29 16 16 24 25
75 67 55 57 52 44 45 42 37 32 28 24 23 20 6 9 16 4 19 14 13 15 11 7 6 11 5 9 9 17 19 12 9 11 3 14 17 18 18 23 22 10 9 8 6 25 14
68 68 59 61 53 46 46 44 40 36 31 28 23 21 10 14 6 11 11 12 9 8 8 9 10 9 6 12 16 18 21 11 21 22 13 13 13 26 25 25 19 10 7 4 21 5 11
66 72 61 56 56 46 47 45 42 39 35 31 24 25 16 11 6 11 6 7 7 11 12 11 10 9 10 16 14 15 14 16 21 26 20 22 17 19 21 31 41 10 6 17 10 6 7
60 67 63 56 63 45 46 46 43 40 37 33 17 26 22 7 3 18 16 15 7 4 5 9 5 3 3 10 7 8 9 8 19 22 19 21 24 18 11 9 7 3 5 7 7 11 7
Wind_Direction_850mb
15 17 359 1 341 7 355 350 355 349 342 347 345 343 342 340 328 332 337 341 342 327 309 266 200 151 140 163 99 135 125 130 140 152 148 153 172 175 179 157 184 234 197 227 240 256 262
42 2 359 10 2 4 350 349 356 347 344 350 343 342 344 333 333 333 338 351 0 2 359 196 136 148 148 155 141 137 126 137 163 158 160 159 150 188 126 167 244 166 277 257 248 252 246
21 15 359 345 351 350 355 353 351 350 347 348 341 341 342 333 335 332 334 340 351 21 35 98 121 144 144 109 140 139 128 151 168 170 166 185 147 244 173 169 236 263 268 204 213 246 249
356 354 344 341 352 352 348 350 350 353 346 344 342 340 338 336 335 331 336 322 311 310 40 60 117 135 99 147 132 142 132 135 149 159 161 185 237 244 246 219 231 250 240 177 109 338 117
346 342 341 336 346 344 344 350 349 347 345 342 340 342 337 337 334 334 337 331 318 297 309 70 115 128 125 169 161 168 158 150 158 178 198 207 225 246 205 229 195 204 136 113 132 27 179
320 334 327 336 338 338 343 346 341 341 343 336 337 341 337 337 337 339 342 327 338 314 135 91 128 170 157 150 157 162 156 154 162 159 162 209 211 209 191 218 127 125 152 148 68 68 80
306 313 322 323 330 329 335 338 334 335 337 330 334 342 337 339 336 341 354 19 346 125 296 264 125 315 132 138 152 165 163 165 178 206 190 200 234 97 69 27 52 79 138 113 94 131 26
293 298 306 311 318 325 330 328 326 329 329 330 331 337 337 337 329 30 24 36 30 325 268 248 233 210 168 165 150 169 169 194 197 163 189 212 96 80 66 183 184 198 188 111 95 99 274
282 289 295 303 311 317 318 319 320 324 325 326 325 331 336 333 306 206 59 12 348 335 250 161 189 180 172 174 153 173 187 177 200 183 196 39 67 95 187 158 192 164 359 128 24 166 174
275 281 288 297 303 310 316 318 322 323 323 324 321 323 331 340 341 230 227 329 338 328 232 137 182 166 169 178 150 161 183 199 189 145 182 64 92 166 178 126 296 145 82 281 231 241 178
274 277 283 291 299 307 314 318 319 321 320 318 316 315 324 321 273 231 232 320 326 299 188 150 145 158 175 211 136 174 187 195 182 141 252 91 104 167 185 48 296 53 306 296 279 271 280
274 275 279 285 293 302 309 315 317 319 318 315 318 311 309 300 280 229 239 316 305 229 150 156 151 177 174 171 159 145 176 205 209 220 283 99 90 20 41 99 9 117 227 227 243 252 214
270 272 276 281 289 300 307 312 318 321 319 317 318 306 292 277 238 222 230 277 228 259 147 159 174 184 180 163 145 170 177 193 205 182 189 177 135 101 359 217 175 220 246 251 230 202 60
269 269 272 277 284 292 301 310 318 322 321 321 323 304 275 249 240 205 201 228 238 111 178 135 190 182 185 162 159 171 183 170 210 256 161 210 164 209 10 4 334 315 318 314 274 250 73
266 269 270 276 282 290 299 310 317 323 324 324 330 316 262 240 216 192 218 222 238 178 100 187 174 183 173 178 204 192 209 202 154 209 259 193 121 122 76 43 317 125 251 28 285 198 259
264 265 268 269 276 284 295 304 313 322 327 330 335 318 230 224 185 177 223 260 222 142 320 214 209 226 187 183 197 212 185 164 176 219 262 161 209 200 131 227 113 331 37 233 200 281 274
263 262 262 266 270 278 286 299 311 322 329 330 333 257 238 156 156 193 224 213 218 210 262 244 206 186 212 180 214 202 185 129 209 170 213 205 256 149 193 218 355 198 210 240 309 300 298
260 261 261 260 263 270 280 291 308 322 331 332 332 230 210 166 201 208 224 197 151 209 212 234 259 205 189 182 187 202 184 37 143 193 206 161 243 246 327 1 277 279 301 271 298 277 243
257 260 259 258 258 262 270 282 297 318 334 345 309 265 274 182 220 205 166 195 209 213 213 223 206 269 204 158 158 165 146 105 95 196 194 177 210 218 203 183 186 223 194 261 270 277 268
252 256 257 255 254 254 259 267 280 299 321 335 292 214 170 200 257 289 197 196 185 156 234 266 234 198 176 169 151 167 147 111 100 119 112 215 246 259 280 354 345 200 222 231 242 269 281
249 248 252 253 249 249 252 252 264 278 304 326 260 137 305 189 197 216 225 199 199 176 218 228 195 231 204 197 190 181 153 149 150 141 148 248 250 245 265 282 268 271 270 262 235 257 260
248 242 246 250 248 245 245 246 247 257 268 282 277 260 214 150 196 207 178 208 218 158 278 177 246 170 199 222 236 212 193 200 200 165 195 190 262 264 269 261 265 266 261 259 256 254 259
238 242 241 246 245 241 239 239 237 240 238 244 263 258 266 148 185 209 207 195 187 194 114 53 14 197 180 82 68 67 68 77 66 248 200 230 260 252 269 286 284 267 253 251 257 256 250
232 240 237 238 241 237 235 233 230 228 227 228 241 225 243 189 227 205 176 193 178 163 216 124 72 223 104 128 110 115 112 125 176 133 144 216 230 261 267 267 258 268 342 284 272 273 272
229 230 234 235 238 232 230 227 224 222 219 220 224 206 239 230 220 182 190 180 173 147 169 166 63 115 144 168 205 203 193 223 216 198 220 234 239 259 252 255 273 274 261 226 255 268 288
226 223 229 233 230 229 224 221 217 215 211 211 217 211 225 265 207 189 189 201 212 206 170 145 100 149 168 233 220 237 242 243 205 178 210 215 242 246 243 256 271 44 76 33 286 267 13
219 221 225 225 221 222 220 216 211 208 205 203 210 204 200 241 184 172 202 203 193 211 243 152 168 172 197 217 235 243 247 226 245 235 191 194 216 229 238 251 264 295 108 297 251 0 14
215 220 216 223 211 215 213 211 207 203 200 199 213 202 189 231 187 193 185 178 172 215 225 132 180 196 204 229 242 230 248 223 247 249 253 233 236 233 245 265 267 81 177 245 6 9 348
210 216 214 220 206 209 209 206 202 200 199 197 204 201 197 205 174 216 213 208 183 181 227 191 9 58 268 234 212 263 222 242 243 249 198 249 247 280 244 288 36 25 287 292 296 299 314